Regional Weather Roundup
Issued by NWS

Home | Current Version | Previous Version | Graphics & Text | Print | Product List | Glossary On
Versions: 1 2 3 4 5 6 7 8 9 10 11 12 13 14 15 16 17 18 19 20 21 22 23 24 25 26 27 28 29 30 31 32 33 34 35 36 37 38 39 40 41 42 43 44 45 46 47 48 49 50
000
ASUS43 KMPX 210110
RWRMN
WEATHER ROUNDUP FOR MINNESOTA
NATIONAL WEATHER SERVICE TWIN CITIES/CHANHASSEN MN
800 PM CDT WED AUG 20 2014


NOTE: "FAIR" INDICATES FEW OR NO CLOUDS BELOW 12,000 FEET WITH NO
SIGNIFICANT WEATHER AND/OR OBSTRUCTIONS TO VISIBILITY. N/A MEANS
CURRENT SKY AND/OR WEATHER CONDITIONS ARE NOT AVAILABLE.

MNZ060>063-068>070-210200-
   Twin Cities Metro

CITY           SKY/WX    TMP DP  RH WIND       PRES   REMARKS
TWIN CITIES    MOCLDY    78  66  66 E10       29.85R
ST PAUL        MOCLDY    76  66  71 E8        29.85R
CRYSTAL        MOCLDY    79  64  60 E8        29.83S
BLAINE         MOCLDY    75  70  83 E8        29.86R
LAKEVILLE      MOCLDY    73  68  83 E5        29.85S
EDEN PRAIRIE   MOCLDY    78  67  68 E8        29.83S
SOUTH ST PAUL  MOCLDY    77  65  68 E3        29.85S
LAKE ELMO      FAIR      73  68  83 E5        29.88R
$$
MNZ001>005-007-008-013>017-022>024-027-028-210200-
   Northwest Minnesota

CITY           SKY/WX    TMP DP  RH WIND       PRES   REMARKS
BEMIDJI        MOCLDY    72  63  71 SE8       29.87R
HALLOCK        PTCLDY    77  66  69 SE7       29.78S
ROSEAU         PTCLDY    77  64  65 SE7       29.83R
WARROAD        CLEAR     73  66  78 E9        29.84S
THIEF RVR FALL PTCLDY    75  64  69 E8        29.82S
CROOKSTON      PTCLDY    75  68  78 S5        29.80S
FOSSTON        PTCLDY    72  63  73 CALM      29.85R
DETROIT LAKES  CLOUDY    75  64  69 SE7       29.84R
MOORHEAD       MOCLDY    79  72  78 E5        29.79R
PARK RAPIDS    MOCLDY    74  65  73 SE7       29.85S
MAHNOMEN       FAIR      74  66  77 E6        29.82S
$$
MNZ006-009>011-018-025>026-210200-
   North Central Minnesota

CITY           SKY/WX    TMP DP  RH WIND       PRES   REMARKS
BAUDETTE       PTCLDY    72  61  68 SE6       29.85F
FLAG ISLAND    CLEAR     73  63  68 SE13      29.83F
INTL FALLS     PTCLDY    68  60  75 E5        29.88S
WASKISH        CLEAR     72  63  73 CALM      29.87R
BIG FORK       PTCLDY    68  61  77 CALM      29.90S
LONGVILLE      PTCLDY    68  64  88 CALM      29.88R
GRAND RAPIDS   PTCLDY    68  61  77 SE3       29.89S
CRANE LAKE     CLEAR     63  61  94 CALM      29.91S
ORR            CLOUDY    68  61  77 CALM      29.88S
COOK           MOCLDY    70  63  78 CALM      29.90F
WALKER         FAIR      71  64  78 CALM      29.87R
$$
MNZ012-019>021-037-210200-
   Northeast Minnesota

CITY           SKY/WX    TMP DP  RH WIND       PRES   REMARKS
DULUTH         MOCLDY    65  56  72 E7        29.92S
ELY            CLOUDY    68  61  77 SE5       29.92S
HIBBING        PTCLDY    68  61  78 SE5       29.90F
EVELETH        PTCLDY    64  59  82 S3        29.92S
DULUTH HARBOR  CLOUDY    66  63  88 E7        29.91S
TWO HARBORS    CLEAR     63  57  82 CALM      29.92R
SILVER BAY     CLEAR     61  61 100 CALM      29.93R
GRAND MARAIS     N/A     63  59  87 E3        29.94R
G MARAIS ARPRT CLOUDY    59  55  88 CALM      29.97S
$$
MNZ029>031-032-039>041-046>048-054>057-064-210200-
   West Central Minnesota

CITY           SKY/WX    TMP DP  RH WIND       PRES   REMARKS
FERGUS FALLS   MOCLDY    77  64  65 SE6       29.79R
WHEATON        PTCLDY    73  66  78 E6        29.79R
MORRIS         PTCLDY    77  66  69 E7        29.79R
ALEXANDRIA     MOCLDY    76  66  71 SE9       29.84R
ELBOW LAKE     FAIR      76  67  73 SE9       29.80R
WADENA         MOCLDY    73  64  73 E7        29.84R
GLENWOOD       MOCLDY    73  66  78 E7        29.84R
APPLETON       MOCLDY    77  68  73 SE8       29.78R
BENSON         CLOUDY    77  68  73 SE8       29.80R
ORTONVILLE     MOCLDY    75  68  78 SE7       29.77R
MADISON        MOCLDY    79  70  73 SE6       29.77S
WILLMAR        FAIR      79  66  65 E9        29.82S
$$
MNZ033>034-036-042>043-049>051-058-059-210200-
   Central Minnesota

CITY           SKY/WX    TMP DP  RH WIND       PRES   REMARKS
ST CLOUD       MOCLDY    76  66  71 E7        29.84S
SAUK CENTRE    FAIR      75  66  74 E7        29.84R
PAYNESVILLE    CLOUDY    74  64  71 NE9       29.83S HAZE
AITKIN         PTCLDY    72  64  78 CALM      29.87R
PINE RIVER     PTCLDY    70  64  83 SE5       29.90R
BRAINERD       PTCLDY    69  63  81 CALM      29.87R
STAPLES        MOCLDY    72  64  78 E6        29.85R
LONG PRAIRIE   FAIR      72  64  78 E6        29.85R
LITTLE FALLS   MOCLDY    72  64  78 E6        29.85R
LITCHFIELD     CLOUDY    77  72  83 E8        29.83S
BUFFALO        MOCLDY    76  65  68 NE7       29.85S
MAPLE LAKE     MOCLDY    76  68  78 E9        29.85S
$$
MNZ037-044-045-052-053-210200-
   East Central Minnesota

CITY           SKY/WX    TMP DP  RH WIND       PRES   REMARKS
PRINCETON      MOCLDY    75  66  73 E5        29.86S
MORA           PTCLDY    70  63  78 CALM      29.90R
CAMBRIDGE      PTCLDY    75  63  64 CALM      29.85S
RUSH CITY      PTCLDY    71  64  77 E3        29.88S
MOOSE LAKE     PTCLDY    68  61  77 NE5       29.88S
HINCKLEY       CLOUDY    70  64  83 E3        29.89R
CLOQUET        CLEAR     64  57  77 CALM      29.92R
MCGREGOR       PTCLDY    68  63  83 E5        29.89S
$$
MNZ071>073-080-081-089-090-097-098-210200-
   Southwest Minnesota

CITY           SKY/WX    TMP DP  RH WIND       PRES   REMARKS
MONTEVIDEO     CLOUDY    75  70  83 S7        29.79S
GRANITE FALLS  CLOUDY    77  70  79 E5        29.80S
CANBY          CLOUDY    74  70  87 SE6       29.78S
MARSHALL       CLOUDY    77  68  73 SE12      29.78S
REDWOOD FALLS  CLOUDY    78  69  73 SE8       29.80R
OLIVIA         CLOUDY    77  66  69 SE6       29.81R
PIPESTONE      CLOUDY    73  70  88 SE8       29.81S
WINDOM         CLOUDY    75  68  78 SE8       29.83R
WORTHINGTON    CLOUDY    72  12  10 E6        29.83S
JACKSON        CLOUDY    73  64  73 S12       29.84R
TRACY          CLOUDY    76  70  83 S7        29.81S
SLAYTON        CLOUDY    73  68  86 CALM      29.82S
$$
MNZ065>067-074>077-082>085-091>093-210200-
   South Central Minnesota

CITY           SKY/WX    TMP DP  RH WIND       PRES   REMARKS
MANKATO        PTCLDY    77  64  65 S8        29.83S
NEW ULM        CLOUDY    77  70  78 SE6       29.82R
ST JAMES       CLOUDY    77  68  73 SE8       29.82F
FAIRMONT       CLOUDY    73  64  73 SE10      29.83F
GLENCOE        MOCLDY    79  66  64 E6        29.82S
FARIBAULT      PTCLDY    81  64  57 CALM      29.85S
OWATONNA       PTCLDY    77  68  73 S6        29.86R
WASECA         PTCLDY    73  63  68 SE5       29.86S
ALBERT LEA     MOCLDY    75  66  73 SE5       29.86S
$$
MNZ078>079-086>088-094>096-210200-
   Southeast Minnesota

CITY           SKY/WX    TMP DP  RH WIND       PRES   REMARKS
ROCHESTER      CLEAR     74  67  78 S6        29.88F
RED WING       MOCLDY    75  66  73 E8        29.85S
STANTON        PTCLDY    76  69  78 E6        29.84S
DODGE CENTER   CLEAR     73  70  88 S7        29.87F
WINONA         PTCLDY    77  68  73 CALM      29.87R
AUSTIN         PTCLDY    73  66  78 S3        29.87S
PRESTON        PTCLDY    73  71  92 S5        29.89S
$$
ABBREVIATIONS USED IN REMARKS
   TC - TEMPERATURES IN CELSIUS
  WCI - WIND CHILL INDEX
   HX - HEAT INDEX
  VSB - VISIBILITY
$$



USA.gov is the U.S. government's official web portal to all federal, state and local government web resources and services.